[[{"header":{"parameterUnit":"m.s-1","parameterCategory":1,"la1":30.2991,"la2":30.254,"lo1":-89.0895,"lo2":-89.0444,"dy":0.0017,"dx":0.0017,"nx":28,"ny":28,"refTime":"2023-09-06T21:00:00:Z","depth":0,"parameterNumber":2,"parameterNumberName":"U-component_of_WINDS"},"data":[0,0,0,0,0,0,0,0,0,0,0,0,0,0,0,0,0,0,0,0,0,0,0,0,0,0,0,0,0,0,0,0,0,0,0,0,0,0,0,0,0,0,0,0,0,0,0,0,0,0,0,0,0,0,0,0,0,0,1.7161,1.7161,0,1.7192,1.7192,1.7193,1.7164,1.7163,1.7162,1.7161,1.7191,1.7193,1.7195,0,0,0,0,0,0,0,0,0,0,0,0,0,1.7075,1.7076,1.7161,1.7161,1.7162,1.7192,1.7192,1.7193,1.7165,1.7163,1.7162,1.716,1.7191,1.7193,1.7195,0,0,0,0,0,0,0,0,0,0,0,0,0,1.7109,1.7077,1.7161,1.7151,1.7151,1.7192,1.7192,1.7193,1.7165,1.7163,1.7161,1.716,1.719,1.7193,1.7196,1.7247,0,0,1.7204,1.7205,0,0,0,0,0,0,0,0,1.7108,1.7113,1.7152,1.7152,1.7151,1.7173,1.7173,1.7211,1.7165,1.7159,1.7161,1.7159,1.7186,1.7189,1.7199,1.7249,1.725,1.7204,1.7206,1.7207,1.7208,0,0,0,0,0,0,0,1.7105,1.7111,1.7173,1.7153,1.7152,1.7145,1.7148,1.718,1.7182,1.716,1.7158,1.7162,1.7186,1.7196,1.7199,1.725,1.7204,1.7207,1.7209,1.721,1.7341,1.7343,0,0,0,0,0,0,1.7104,1.7109,1.7172,1.7174,1.7125,1.7147,1.7151,1.7167,1.7182,1.7182,1.7163,1.7161,1.7192,1.7196,1.72,1.7259,1.7207,1.721,1.7212,1.7339,1.7342,1.7343,0,0,0,0,0,0,1.7102,1.711,1.7171,1.7141,1.7148,1.7151,1.717,1.7169,1.7179,1.7184,1.7184,1.7174,1.7191,1.7196,1.7235,1.726,1.7211,1.7214,1.7337,1.734,1.7343,1.7379,0,0,0,0,0,0,1.71,1.7109,1.713,1.7142,1.715,1.7206,1.7171,1.7171,1.7184,1.7181,1.7194,1.7195,1.719,1.7231,1.7238,1.7263,1.7216,1.7335,1.7338,1.7342,1.7376,1.7383,1.7389,0,0,0,0,0,1.7097,1.7139,1.7131,1.7139,1.7176,1.7208,1.7212,1.7206,1.7187,1.7206,1.7209,1.7194,1.7257,1.7235,1.7243,1.7269,1.7333,1.7337,1.7341,1.7373,1.7382,1.7389,0,0,0,0,0,0,1.713,1.7141,1.7132,1.7179,1.7193,1.7203,1.7227,1.7216,1.7235,1.7231,1.7223,1.7226,1.7266,1.7272,1.7248,1.7319,1.7292,1.7297,1.7313,1.7321,1.7328,1.7325,1.7218,0,0,0,0,0,1.7143,1.7169,1.7176,1.7218,1.7225,1.7225,1.7239,1.7233,1.7247,1.7252,1.7258,1.7271,1.7293,1.7308,1.7329,1.7377,1.7378,1.7399,1.7406,1.7411,1.7415,1.7438,1.7447,1.7357,1.7357,1.7357,0,0,1.717,1.7179,1.7195,1.7224,1.7234,1.7259,1.723,1.7259,1.7277,1.7256,1.7292,1.7297,1.7311,1.7354,1.7374,1.736,1.7441,1.7416,1.742,1.7422,1.7443,1.7452,1.746,1.736,1.7359,1.7359,0,0,1.7231,1.7241,1.7275,1.7286,1.7301,1.73,1.7309,1.732,1.7322,1.7359,1.7343,1.7365,1.7404,1.7414,1.7424,1.7487,1.7473,1.7495,1.7528,1.7551,1.7558,1.7564,1.7584,1.7592,1.7499,1.7499,1.7499,0,1.7262,1.73,1.7294,1.7324,1.7336,1.7318,1.7352,1.7362,1.7383,1.7391,1.7376,1.7424,1.7432,1.7476,1.7491,1.7501,1.7508,1.7492,1.7557,1.7564,1.7569,1.7588,1.7596,1.7502,1.7501,1.7501,1.7501,0,1.7336,1.7363,1.7388,1.7408,1.7424,1.7455,1.7453,1.7469,1.7463,1.7463,1.75,1.7509,1.753,1.7541,1.7535,1.7583,1.7574,1.7559,1.7531,1.758,1.7598,1.7605,1.7505,1.7504,1.7503,1.7503,0,0,1.7418,1.7434,1.7443,1.7451,1.7466,1.7486,1.7516,1.7537,1.755,1.7565,1.7588,1.7621,1.7607,1.7618,1.7613,1.7633,1.768,1.7615,1.7615,1.7624,1.773,1.774,1.7749,1.7671,1.7673,1.7674,1.7728,0,1.7477,1.7529,1.7524,1.7573,1.7596,1.7579,1.7605,1.7616,1.7618,1.7637,1.7639,1.7662,1.7642,1.7648,1.7668,1.767,1.77,1.7666,1.7691,1.7692,1.7685,1.7758,1.7769,1.782,1.7735,1.7737,1.7737,0,1.7553,1.757,1.7621,1.763,1.764,1.7663,1.7681,1.77,1.7712,1.7711,1.7724,1.7715,1.7743,1.7717,1.7755,1.7732,1.7742,1.7744,1.7746,1.7746,1.7716,1.7758,1.7836,1.7843,1.7749,1.7748,1.7747,0,1.7604,1.764,1.7674,1.7682,1.7695,1.7711,1.7717,1.7727,1.7739,1.7755,1.7762,1.7781,1.7791,1.7805,1.7801,1.7783,1.7839,1.7813,1.7838,1.7838,1.7849,1.7847,1.7927,1.786,1.786,1.7859,1.7859,0,1.7669,1.77,1.7697,1.7718,1.7752,1.7746,1.7779,1.7783,1.7792,1.7812,1.78,1.7819,1.7813,1.7832,1.7829,1.786,1.7865,1.7864,1.7862,1.7864,1.7863,1.7868,1.7864,1.7861,1.7861,1.7861,1.786,0,1.7731,1.7731,1.7766,1.7775,1.7778,1.7802,1.7809,1.7828,1.7829,1.7854,1.786,1.7861,1.7882,1.788,1.7904,1.7901,1.7938,1.7934,1.7934,1.7932,1.7956,1.7953,1.804,1.8049,1.7978,1.7979,1.7979,0,1.7772,1.7795,1.7806,1.7818,1.7825,1.7846,1.7858,1.7853,1.7866,1.788,1.7897,1.7917,1.7933,1.7967,1.7969,1.7987,1.7981,1.8011,1.7984,1.7984,1.7978,1.7976,1.7977,1.8015,1.8016,1.8016,1.8017,0,1.7842,1.784,1.7859,1.7876,1.7891,1.7905,1.7917,1.7928,1.7924,1.7939,1.796,1.7972,1.7996,1.8016,1.8032,1.8037,1.8026,1.8026,1.8032,1.8032,1.803,1.8029,1.7945,1.8023,1.8023,1.8022,1.8022,1.8022,1.7893,1.7911,1.7921,1.7941,1.795,1.7962,1.7979,1.7982,1.7999,1.8018,1.8014,1.8038,1.8047,1.8068,1.8075,1.8093,1.8082,1.8092,1.8094,1.8095,1.8097,1.803,1.8096,1.8096,1.8096,1.8096,1.8096,0,1.796,1.7966,1.7984,1.8001,1.8017,1.8006,1.8018,1.8031,1.8052,1.8062,1.8078,1.8101,1.812,1.8123,1.814,1.8153,1.8148,1.8158,1.8156,1.8156,1.8107,1.8099,1.8161,1.8161,1.8161,1.8161,1.8161,1.8161,1.7997,1.8027,1.8027,1.8061,1.8066,1.8088,1.8096,1.8106,1.8114,1.8141,1.8156,1.8158,1.8165,1.8183,1.8198,1.8199,1.8205,1.8216,1.8214,1.8167,1.816,1.8154,1.8146,1.8218,1.8218,1.8261,1.8262,1.8262]},{"header":{"parameterUnit":"m.s-1","parameterCategory":1,"la1":30.2991,"la2":30.254,"lo1":-89.0895,"lo2":-89.0444,"dy":0.0017,"dx":0.0017,"nx":28,"ny":28,"refTime":"2023-09-06T21:00:00:Z","depth":0,"parameterNumber":3,"parameterNumberName":"V-component_of_WINDS"},"data":[0,0,0,0,0,0,0,0,0,0,0,0,0,0,0,0,0,0,0,0,0,0,0,0,0,0,0,0,0,0,0,0,0,0,0,0,0,0,0,0,0,0,0,0,0,0,0,0,0,0,0,0,0,0,0,0,0,0,0.5273,0.5273,0,0.5325,0.5326,0.5327,0.5325,0.5324,0.5323,0.5322,0.5378,0.538,0.5382,0,0,0,0,0,0,0,0,0,0,0,0,0,0.517,0.5172,0.5273,0.5273,0.5274,0.5325,0.5326,0.5327,0.5325,0.5324,0.5323,0.5322,0.5377,0.538,0.5382,0,0,0,0,0,0,0,0,0,0,0,0,0,0.5218,0.5172,0.5272,0.5279,0.528,0.5325,0.5326,0.5327,0.5325,0.5324,0.5323,0.5322,0.5376,0.5379,0.5383,0.5425,0,0,0.5392,0.5394,0,0,0,0,0,0,0,0,0.5215,0.5221,0.5277,0.5279,0.528,0.5317,0.531,0.536,0.5325,0.5308,0.5322,0.5321,0.5359,0.5363,0.5376,0.5428,0.543,0.5393,0.5395,0.5396,0.5397,0,0,0,0,0,0,0,0.5212,0.5219,0.5294,0.5278,0.528,0.5279,0.5285,0.532,0.5339,0.5309,0.5309,0.5315,0.5359,0.5372,0.5377,0.5431,0.5393,0.5396,0.5398,0.5399,0.5519,0.552,0,0,0,0,0,0,0.5207,0.5216,0.5292,0.5295,0.5244,0.5282,0.5288,0.5306,0.5339,0.5342,0.5316,0.5315,0.5367,0.5373,0.5379,0.543,0.5396,0.5399,0.5401,0.5518,0.5519,0.5521,0,0,0,0,0,0,0.5205,0.5214,0.529,0.5256,0.5265,0.5285,0.5305,0.5308,0.5321,0.5344,0.5347,0.5327,0.5367,0.5374,0.5413,0.5432,0.5401,0.5404,0.5516,0.5518,0.552,0.5534,0,0,0,0,0,0,0.5202,0.5213,0.5229,0.5256,0.5267,0.5323,0.5307,0.531,0.5327,0.5326,0.5354,0.5358,0.5367,0.5408,0.5416,0.5436,0.5406,0.5515,0.5517,0.5519,0.5532,0.5536,0.5539,0,0,0,0,0,0.5198,0.5232,0.523,0.5239,0.5288,0.5324,0.5331,0.534,0.5328,0.5345,0.5359,0.5357,0.5428,0.5412,0.5421,0.5442,0.5514,0.5516,0.5519,0.553,0.5535,0.5539,0,0,0,0,0,0,0.5208,0.5235,0.5234,0.5277,0.5298,0.5324,0.5346,0.5345,0.537,0.5368,0.5378,0.5384,0.5423,0.5437,0.5418,0.5484,0.547,0.5474,0.5475,0.548,0.5483,0.548,0.5409,0,0,0,0,0,0.5214,0.5241,0.5264,0.53,0.5311,0.5326,0.5342,0.5347,0.5369,0.5379,0.5396,0.5418,0.5445,0.5463,0.5489,0.5533,0.5539,0.5552,0.5556,0.5559,0.5563,0.5586,0.5592,0.553,0.553,0.553,0,0,0.523,0.5248,0.5265,0.5302,0.5319,0.5347,0.5334,0.5364,0.5384,0.5383,0.5421,0.5434,0.5459,0.55,0.5519,0.5513,0.5581,0.5562,0.5564,0.5567,0.559,0.5596,0.5601,0.5532,0.5531,0.5531,0,0,0.5271,0.5288,0.5319,0.5336,0.5361,0.5371,0.5378,0.5404,0.5412,0.545,0.5449,0.5474,0.5521,0.5538,0.5554,0.5599,0.5598,0.5608,0.5628,0.5651,0.5656,0.566,0.5677,0.5682,0.5612,0.5612,0.5612,0,0.5287,0.5328,0.5336,0.5365,0.5382,0.5381,0.5413,0.5429,0.5461,0.5473,0.5464,0.5522,0.5539,0.5584,0.5595,0.5608,0.5616,0.5605,0.5654,0.5659,0.5663,0.5679,0.5685,0.5613,0.5613,0.5612,0.5612,0,0.5346,0.5375,0.5397,0.5428,0.5447,0.5477,0.5489,0.5507,0.5509,0.552,0.5558,0.5578,0.5608,0.5618,0.5622,0.5664,0.5659,0.5652,0.5638,0.567,0.5685,0.5691,0.5614,0.5614,0.5613,0.5613,0,0,0.5398,0.543,0.5438,0.5452,0.5479,0.5501,0.5531,0.5559,0.5575,0.5597,0.5622,0.5661,0.5655,0.5672,0.5677,0.5696,0.5731,0.5687,0.5688,0.5695,0.5778,0.5784,0.579,0.573,0.5731,0.5732,0.5776,0,0.5442,0.5495,0.5502,0.5549,0.5575,0.5573,0.5599,0.5619,0.5629,0.5652,0.5663,0.5691,0.568,0.569,0.571,0.5723,0.5748,0.572,0.5754,0.5755,0.5749,0.5798,0.5804,0.5845,0.5782,0.5783,0.5784,0,0.5502,0.5524,0.5574,0.5596,0.5607,0.5631,0.5657,0.5679,0.57,0.5706,0.5724,0.5726,0.5757,0.574,0.5782,0.5763,0.5777,0.5785,0.5787,0.5791,0.5772,0.5804,0.5859,0.5865,0.5793,0.5792,0.5792,0,0.5534,0.5577,0.5612,0.5624,0.565,0.5666,0.5678,0.5698,0.5715,0.5737,0.5748,0.5774,0.5788,0.5808,0.5817,0.5804,0.5859,0.5843,0.5865,0.5864,0.5877,0.5877,0.5935,0.5885,0.5885,0.5885,0.5885,0,0.5584,0.5614,0.5627,0.5649,0.5682,0.5689,0.5722,0.5733,0.5751,0.5774,0.5774,0.5796,0.5806,0.583,0.5837,0.587,0.5877,0.5882,0.5884,0.5883,0.5882,0.5893,0.5891,0.5887,0.5886,0.5886,0.5886,0,0.5626,0.5636,0.5674,0.5695,0.5701,0.5725,0.5743,0.5764,0.5773,0.5803,0.581,0.5825,0.5852,0.5862,0.5896,0.59,0.594,0.5939,0.5933,0.5933,0.5955,0.5953,0.6023,0.6032,0.5976,0.5976,0.5977,0,0.5658,0.5681,0.5704,0.572,0.5732,0.5757,0.5773,0.578,0.5797,0.5822,0.5839,0.5867,0.5889,0.5933,0.5947,0.5972,0.5972,0.5995,0.5976,0.5974,0.5973,0.5971,0.5974,0.5999,0.5999,0.6,0.6,0,0.5713,0.5716,0.5739,0.5764,0.5783,0.5802,0.5822,0.5834,0.5844,0.5863,0.589,0.5908,0.5941,0.5968,0.5994,0.6006,0.6005,0.6005,0.6012,0.6012,0.6007,0.601,0.5943,0.6004,0.6004,0.6004,0.6003,0.6003,0.5751,0.5771,0.579,0.5816,0.5831,0.5848,0.5868,0.5879,0.5902,0.593,0.5932,0.5962,0.5981,0.6016,0.6029,0.6052,0.6046,0.6056,0.6058,0.6061,0.6062,0.6002,0.6057,0.6057,0.6057,0.6057,0.6057,0,0.5806,0.5818,0.5841,0.5867,0.5887,0.5883,0.5903,0.592,0.5946,0.5964,0.5985,0.6017,0.6042,0.6057,0.6083,0.6099,0.6099,0.6105,0.6105,0.6107,0.6066,0.6058,0.6105,0.6105,0.6105,0.6105,0.6105,0.6105,0.5837,0.5871,0.5876,0.5917,0.5928,0.5957,0.5969,0.5985,0.5999,0.6034,0.6055,0.6064,0.608,0.6107,0.613,0.6134,0.6143,0.6151,0.6154,0.6115,0.611,0.6106,0.6098,0.6153,0.6153,0.6193,0.6193,0.6194]}]]